Tracking 29892 objects as of 21-Nov-2024
HD Live streaming from Space Station
objects crossing your sky now

COSMOS 1823 DEB

Track COSMOS 1823 DEB now!
10-day predictions


NORAD ID: 39814
Int'l Code: 1987-020EN
Perigee: 1,478.6 km
Apogee: 1,523.0 km
Inclination: 73.6 °
Period: 115.8 minutes
Semi major axis: 7871 km
RCS: 0.0157 m2 (small)
Launch date: February 20, 1987
Source: Commonwealth of Independent States (former USSR) (CIS)
Launch site: PLESETSK MISSILE AND SPACE COMPLEX (PKMTR)

Note: This is SATELLITE DEBRIS
Your satellite tracking list
Your tracking list is empty




NASA's NSSDC Master Catalog

Two Line Element Set (TLE):
1 39814U 87020EN  24314.07957690  .00000182  00000-0  14384-2 0  9992
2 39814  73.6125  87.9976 0028186 309.6241  50.2317 12.43055475473331
Source of the keplerian elements: AFSPC